Location: Perryvale
(54.4667°N, 113.3833°W)
Time: 00:25:47
(UTC+00:00)

Vanguard 1 Rocket - Pass Details

Date: 27 May 2024
Orbit: 649 x 4221 km, 34.3° (Epoch: 13 June)

Event Time Altitude Azimuth Distance (km) Brightness Sun altitude
Rises 12:32:14 0° 183° (S) 8,422 12.0 9.2°
Reaches altitude 10° 12:42:39 10° 165° (SSE) 7,363 12.0 10.6°
Maximum altitude 12:53:34 15° 138° (SE) 6,527 12.1 12.1°
Drops below altitude 10° 13:03:01 10° 111° (ESE) 6,326 12.6 13.4°
Sets 13:10:19 0° 92° (E) 6,667 13.3 14.4°
